TimeCDT,TemperatureF,Dew PointF,Humidity,Sea Level PressureIn,VisibilityMPH,Wind Direction,Wind SpeedMPH,Gust SpeedMPH,PrecipitationIn,Events,Conditions,WindDirDegrees,DateUTC
12:56 AM,47.8,45.0,90,30.18,10.0,Calm,Calm,-,N/A,,Clear,0,2013-05-13 05:56:00
1:56 AM,50.9,50.9,100,30.17,10.0,Calm,Calm,-,N/A,,Clear,0,2013-05-13 06:56:00
2:56 AM,45.9,45.0,97,30.18,10.0,Calm,Calm,-,N/A,,Clear,0,2013-05-13 07:56:00
3:56 AM,46.9,45.9,96,30.19,10.0,Calm,Calm,-,N/A,,Clear,0,2013-05-13 08:56:00
4:56 AM,50.0,50.0,100,30.19,10.0,Calm,Calm,-,N/A,,Clear,0,2013-05-13 09:56:00
5:56 AM,52.9,52.0,97,30.20,10.0,Calm,Calm,-,N/A,,Clear,0,2013-05-13 10:56:00
6:56 AM,56.8,54.0,90,30.22,10.0,Calm,Calm,-,N/A,,Clear,0,2013-05-13 11:56:00
7:56 AM,59.0,50.9,74,30.24,10.0,SW,3.5,-,N/A,,Clear,220,2013-05-13 12:56:00
8:56 AM,59.0,43.0,55,30.25,10.0,West,8.1,-,N/A,,Clear,260,2013-05-13 13:56:00
9:56 AM,61.9,36.9,39,30.25,10.0,West,8.1,-,N/A,,Clear,270,2013-05-13 14:56:00
10:56 AM,63.9,32.0,30,30.25,10.0,WNW,10.4,-,N/A,,Clear,300,2013-05-13 15:56:00
11:56 AM,64.9,32.9,30,30.25,10.0,WNW,6.9,-,N/A,,Clear,290,2013-05-13 16:56:00
12:56 PM,65.8,32.9,29,30.24,10.0,West,10.4,-,N/A,,Clear,280,2013-05-13 17:56:00
1:56 PM,66.9,34.0,30,30.22,10.0,NW,10.4,-,N/A,,Partly Cloudy,310,2013-05-13 18:56:00
3:56 PM,68.0,32.0,26,30.18,10.0,Variable,6.9,-,N/A,,Clear,0,2013-05-13 20:56:00
4:56 PM,70.0,34.9,28,30.16,10.0,West,8.1,-,N/A,,Clear,280,2013-05-13 21:56:00
5:56 PM,72.0,36.9,28,30.15,10.0,WNW,4.6,-,N/A,,Clear,300,2013-05-13 22:56:00
6:56 PM,75.9,46.9,36,30.15,10.0,West,4.6,-,N/A,,Clear,270,2013-05-13 23:56:00
7:56 PM,63.9,37.9,38,30.15,10.0,Calm,Calm,-,N/A,,Clear,0,2013-05-14 00:56:00
8:56 PM,59.9,39.9,48,30.16,10.0,Calm,Calm,-,N/A,,Clear,0,2013-05-14 01:56:00
9:56 PM,57.2,44.6,63,30.18,10.0,Calm,Calm,-,N/A,,Clear,0,2013-05-14 02:56:00
10:56 PM,56.8,45.9,67,30.17,10.0,Calm,Calm,-,N/A,,Clear,0,2013-05-14 03:56:00
11:56 PM,55.9,48.9,77,30.14,10.0,SSE,5.8,-,N/A,,Clear,160,2013-05-14 04:56:00